Weather in Radugniy

Russia / Khanty-Mansi Autonomous Okrug — Yugra     62°08′03″N   77°27′30″E
temp.,
°C
wind,
m/s
gust,
m/s
humid.,
%
clouds,
%
prec.,
mm/h
press.,
hPa
HPBL,
m
17 april, sat
sat1723:00−14wsw358460 0.0 102481
02:00−11sw61285100 0.0 1021315
05:00−9sw81692100 0.3 1018531
08:00−5wsw91391100 0.3 1017801
11:00−4wnw81072100 0.4 10161130
14:00−4wnw5768100 0.0 10151134
17:00−6nne5573100 0.1 1014532
20:00−10ne71082100 0.0 1013388
18 april, sun
sun1823:00−12ne81385100 0.0 1013409
02:00−15nne8149088 0.0 1013374
05:00−18nne8159119 0.0 1015312
08:00−16nne913753 0.0 1017430
11:00−14nne10137316 0.0 1019727
14:00−12n91068100 0.0 10211109
17:00−12n81075100 0.1 10221314
20:00−14n7137914 0.1 1023513
19 april, mon
mon1923:00−16n6129086 0.1 1024454
02:00−18nnw6119378 0.0 1025410
05:00−19nnw6129112 0.0 1026376
08:00−16nnw7118286 0.0 1027497
11:00−12nnw71075100 0.0 1028712
14:00−10nw8972100 0.0 1028890
17:00−9nw697497 0.0 10281011
20:00−12wnw358894 0.0 1028109
20 april, tue
tue2023:00−12w35906 0.0 102683
02:00−12sw369270 0.0 102494
05:00−9sw51094100 0.2 1022379
08:00−7ssw6990100 0.4 1019474
11:00−4ssw6888100 0.9 1017691
14:00−3ssw6891100 0.6 1015708
17:00−2sse5895100 1.4 1014522
20:00−3ese5897100 1.3 1014311
21 april, wed
wed2123:00−6e479638 1.6 1017106
02:00−8e489619 0.0 1021105
05:00−9ene47955 0.0 1025107
08:00−5e46825 0.0 1028285
11:00−2ene34715 0.0 1031565
14:00−2ene33675 0.0 1033624
17:00−2ne22745 0.0 1035165
20:00−6ne118712 0.0 103710